STARLINK-1990 (47586 NORAD) Tracking and Keplerian Element Data

This shows tracking and keplerian element data for the satellite.

Feedback or suggestion? Click here.




ElementValue
Catalog47586
NameSTARLINK-1990
Epoch Orbit175
Epoch Day105.91667824
Epoch Year2021
RAAN151.7208
Inclination53.0523
Eccentricity0.0001302
Argument of Perigee62.3708
Mean Anonmoly44.7706
Mean Motion15.06370446
Decay Rate0.00016419
L11 47586U 21009AQ 21105.91667824 .00016419 00000-0 11195-2 0 9994
L22 47586 53.0523 151.7208 0001302 62.3708 44.7706 15.06370446 1753

Live tracking and technical data element details for STARLINK-1990 (NORAD 47586). STARLINK-1990 can be tracked NOW for your location showing map with azimuth and elevation plus other details from your city location.

Track the satellite on the map from your city or location and see movement details for azimuth, elevation, latitude, longitude, range, height, and movement on the map or in text.







IsCatalogInMostPopularTable: catalog: 47586, numindb: 19
Update: records affected: 1



GetName: 47586 STARLINK-1990

Hit Count: updated at: Fri, 16 Apr 2021 12:08:12 GMT